Change the Weather History Date:

Monday, March 18, 2013

  Actual Average Record
Temperature  
Mean Temperature 35 °F 48 °F  
Max Temperature 36 °F 59 °F 79 °F (2011)
Min Temperature 33 °F 37 °F 14 °F (1941)
Degree Days  
Heating Degree Days 30 17  
Month to date heating degree days 404 356  
Since 1 July heating degree days 3346 3561  
Cooling Degree Days 0 0  
Month to date cooling degree days 0 0  
Year to date cooling degree days 0 0  
Moisture  
Dew Point 31 °F    
Average Humidity 93    
Maximum Humidity 96    
Minimum Humidity 89    
Precipitation  
Precipitation 0.19 in 0.11 in 2.85 in (1983)
Month to date precipitation 2.27 1.92  
Year to date precipitation 11.56 7.73  
Snow  
Snow 0.00 in - - ()
Month to date snowfall 2.5  
Since 1 July snowfall 11.8  
Snow Depth 0.00 in    
Sea Level Pressure  
Sea Level Pressure 30.11 in    
Wind  
Wind Speed 6 mph (ESE)    
Max Wind Speed 13 mph    
Max Gust Speed 16 mph    
Visibility 5 miles    
Events Rain    
T = Trace of Precipitation, MM = Missing Value Source: NWS Daily Summary

Daily Weather History Graph

Daily Weather History Graph

Search for Another Location

Airport or City:

Trip Planner

Search our weather history database for the weather conditions in past years. The results will help you decide how hot, cold, wet, or windy it might be!

Date:

Astronomy

Mar. 18, 2013 Rise Set
Actual Time 7:26 AM EDT 7:30 PM EDT
Civil Twilight 7:00 AM EDT 7:56 PM EDT
Nautical Twilight 6:29 AM EDT 8:26 PM EDT
Astronomical Twilight 5:59 AM EDT 8:57 PM EDT
Moon 11:31 AM EDT (3/18) 1:21 AM EDT (3/18)
Length of Visible Light 12h 56m
Length of Day
12h 04m
Waxing Crescent, 40% of the Moon is Illuminated
Mar 18
Waxing Crescent
Mar 19
First Quarter
Mar 27
Full
Apr 3
Last Quarter
Apr 10
New

Hourly Weather History & Observations

Time (EDT) Temp. Windchill Dew Point Humidity Pressure Visibility Wind Dir Wind Speed Gust Speed Precip Events Conditions
12:54 AM 36.0 °F 31.1 °F 33.1 °F 89% 30.22 in 6.0 mi ESE 5.8 mph - 0.06 in Rain Light Rain
1:54 AM 36.0 °F 32.1 °F 34.0 °F 93% 30.21 in 6.0 mi SE 4.6 mph - 0.01 in   Overcast
2:54 AM 35.1 °F 29.3 °F 33.1 °F 92% 30.22 in 4.0 mi East 6.9 mph - 0.01 in   Overcast
3:01 AM 35.6 °F 29.9 °F 33.8 °F 93% 30.20 in 4.0 mi East 6.9 mph - 0.00 in   Overcast
3:54 AM 35.1 °F 31.0 °F 33.1 °F 92% 30.21 in 5.0 mi SE 4.6 mph - N/A Rain Light Rain
4:54 AM 34.0 °F 31.0 °F 32.0 °F 92% 30.21 in 3.0 mi ESE 3.5 mph - N/A   Overcast
5:54 AM 34.0 °F 29.8 °F 32.0 °F 92% 30.22 in 9.0 mi East 4.6 mph - N/A   Overcast
6:54 AM 33.1 °F 26.1 °F 30.9 °F 92% 30.23 in 2.5 mi ESE 8.1 mph - N/A   Light Drizzle
7:45 AM 33.8 °F 27.7 °F 30.2 °F 87% 30.21 in 2.5 mi East 6.9 mph - 0.01 in   Drizzle
7:54 AM 33.1 °F 27.7 °F 30.9 °F 92% 30.24 in 2.5 mi ESE 5.8 mph - 0.01 in   Light Drizzle
8:16 AM 33.8 °F 26.4 °F 30.2 °F 87% 30.20 in 4.0 mi ESE 9.2 mph - 0.00 in   Light Drizzle
8:54 AM 33.1 °F 24.9 °F 30.0 °F 89% 30.23 in 3.0 mi ESE 10.4 mph - 0.00 in   Light Drizzle
9:54 AM 33.1 °F 26.9 °F 30.9 °F 92% 30.22 in 2.0 mi ESE 6.9 mph - 0.00 in Rain Light Rain
10:30 AM 33.8 °F 27.7 °F 30.2 °F 87% 30.18 in 4.0 mi ESE 6.9 mph - 0.01 in   Light Drizzle
10:54 AM 33.1 °F 24.9 °F 30.9 °F 92% 30.20 in 3.0 mi SE 10.4 mph - 0.01 in   Drizzle
11:54 AM 33.1 °F 25.5 °F 30.9 °F 92% 30.19 in 3.0 mi East 9.2 mph - 0.00 in   Light Drizzle
12:41 PM 33.8 °F 26.4 °F 30.2 °F 87% 30.13 in 3.0 mi SE 9.2 mph - 0.00 in   Light Drizzle
12:54 PM 34.0 °F 26.6 °F 30.9 °F 89% 30.15 in 10.0 mi SE 9.2 mph - 0.00 in   Overcast
1:06 PM 33.8 °F 25.8 °F 30.2 °F 87% 30.12 in 7.0 mi SE 10.4 mph - N/A   Overcast
1:28 PM 33.8 °F 27.0 °F 32.0 °F 93% 30.11 in 4.0 mi ESE 8.1 mph - 0.00 in   Light Drizzle
1:41 PM 33.8 °F 27.7 °F 30.2 °F 87% 30.11 in 2.5 mi ESE 6.9 mph - 0.00 in   Light Drizzle
1:54 PM 34.0 °F 29.8 °F 30.9 °F 89% 30.14 in 3.0 mi ESE 4.6 mph - 0.00 in   Light Drizzle
2:14 PM 33.8 °F 27.7 °F 32.0 °F 93% 30.08 in 2.5 mi ESE 6.9 mph - 0.00 in   Light Drizzle
2:54 PM 34.0 °F 28.8 °F 32.0 °F 92% 30.09 in 2.0 mi SE 5.8 mph - 0.00 in   Light Drizzle
3:54 PM 35.1 °F - 32.0 °F 89% 30.08 in 2.0 mi Calm Calm - 0.00 in   Light Drizzle
4:40 PM 35.6 °F 30.7 °F 30.2 °F 81% 30.02 in 5.0 mi East 5.8 mph - 0.01 in   Light Drizzle
4:54 PM 35.1 °F 32.2 °F 30.9 °F 85% 30.06 in 6.0 mi ENE 3.5 mph - 0.01 in Rain Light Rain
5:54 PM 35.1 °F 30.1 °F 32.0 °F 89% 30.03 in 6.0 mi East 5.8 mph - 0.05 in Rain Light Rain
6:52 PM 35.6 °F 32.8 °F 32.0 °F 87% 30.01 in 4.0 mi South 3.5 mph - 0.05 in Rain Light Rain
6:54 PM 35.1 °F 32.2 °F 32.0 °F 89% 30.03 in 4.0 mi South 3.5 mph - 0.05 in Rain Light Rain
7:54 PM 35.1 °F 29.3 °F 32.0 °F 89% 30.01 in 6.0 mi SSE 6.9 mph - 0.01 in Rain Light Rain
8:29 PM 33.8 °F 28.6 °F 30.2 °F 87% 29.95 in 10.0 mi ESE 5.8 mph - 0.00 in   Overcast
8:54 PM 34.0 °F 27.2 °F 30.9 °F 89% 29.93 in 10.0 mi SE 8.1 mph - 0.00 in   Overcast
9:09 PM 33.8 °F - 32.0 °F 93% 29.94 in 10.0 mi Calm Calm - N/A   Overcast
9:40 PM 33.8 °F 30.8 °F 30.2 °F 87% 29.93 in 10.0 mi East 3.5 mph - N/A   Overcast
9:54 PM 34.0 °F 27.2 °F 30.9 °F 89% 29.93 in 10.0 mi ESE 8.1 mph - N/A   Overcast
10:54 PM 34.0 °F 28.8 °F 32.0 °F 92% 29.93 in 10.0 mi ESE 5.8 mph - N/A   Overcast
11:54 PM 34.0 °F - 32.0 °F 92% 29.93 in 10.0 mi Calm Calm - N/A   Overcast